Погода в Херсоне

Хотите узнать прогноз погоды в Херсоне? Тогда Вам сюда: Погода в Херсоне

Поиск расширенной информации на нашем сайте:

Полезная информация:

Новости сайта



02.01.2020
Опубликован Долгосрочный прогноз погоды по городам России и ближнего зарубежья на январь 2020 года.
Карты: Прогноз на январь и февраль 2020 года, Сравнение прогнозируемой аномалии приземной температуры воздуха на январь 2020 года по разным моделям.




Погода в Херсоне - сегодня

Время (UTC), дата Ветер
(°,м/с) 
Видим.   Явления Облачность Т
(°С)
Тd
(°С)
f(%) Тe
(°С)
Pmin
(гПа)
dP
(гПа)
Po
(мм)
O2
(г/м3)
Тmin Tmax R s Состояние
почвы
18 28.11.20 тихо ()   4000 м  дымка{ливн. осадки}  10/10 2000 м 
[Ac und]
+7 +5.9 93 +7  1017.9  0.3  759  297    +13.1  0.0     
21 28.11.20 300 (СЗ) 4000 м  дымка  9/9 2000 м средняя 
[Ac und]
+6.2 +5.3 94 +5  1018.3  0.4  759  298           
00 29.11.20 320 (СЗ) 4000 м  дымка  6/4 2000 м средняя, верхняя 
[Ac und|Cs]
+2.6 +1.6 93 +3  1018.8  0.4  760  303           
03 29.11.20 250 (З) 4000 м  дымка  10/10 2000 м 
[Ac und]
+3.6 +2.6 93 +4  1019.1  0.4  760  302           
06 29.11.20 220 (ЮЗ) 4000 м  дымка  9/4 600 м средняя 
[Sc|Ac lent]
+3.6 +2.1 90 +4  1019.8  0.7  760  302  +1.7         
09 29.11.20 300 (СЗ) 10 км    10/10 1000 м 
[Sc]
+4.5 +1.7 82 +5  1020.3  0.5  761  301           
12 29.11.20 010 (С) 10 км    9/9 600 м 
[Sc diur, vesp]
+5.8 +1.2 72 +6  1020.4  0.1  761  300           
15 29.11.20 040 (СВ) 4000 м  дымка  10/10 600 м 
[Sc]
+6 +3.6 85 +7  1021.1  0.7  761  300           
18 29.11.20 010 (С) 4000 м  дымка  10/10 600 м 
[Sc]
+6 +3.6 85 +6  1021.6  0.5  762  300    +6.6       
21 29.11.20 030 (СВ) 4000 м  дымка  9/5 1000 м средняя 
[Sc|Ac und]
+5.8 +3.9 88 +6  1021.5  -0.1  762  300           
00 30.11.20 360 (С) 2000 м  дымка  10/6 1000 м средняя 
[Sc|Ac und]
+4.7 +4.2 97 +4  1021.3  -0.2  761  301           
03 30.11.20 010 (С) 2000 м  дымка  10/10 600 м 
[Sc]
+5.2 +4.7 97 +4  1021.3  761  300           
06 30.11.20 040 (СВ) 2000 м  в посл. час туман  10/10 600 м 
[Sc]
+5.7 +5.2 97 +5  1021.9  0.6  762  300  +4.5  +0.6       
09 30.11.20 080 (В) 1000 м  в посл. час туман  10/10 600 м 
[Sc]
+6.1 +5.9 99 +6  1021.5  -0.4  762  299           
12 30.11.20 080 (В) 4000 м  дымка{туман}  10/10 600 м 
[Sc]
+6.7 +4.9 88 +6  1020.9  -0.6  761  299           
15 30.11.20 090 (В) 4000 м  дымка  10/10 600 м 
[Sc]
+5.9 +3.8 86 +5  1021.6  0.7  762  300           
18 30.11.20 060 (СВ) 10 км    10/10 600 м 
[Sc]
+5.3 +2.6 83 +4  1021.7  0.1  762  301           
21 30.11.20 040 (СВ) 10 км    10/10 600 м 
[Sc]
+4.5 +2 84 +3  1021.7  762  302           
00 01.12.20 010 (С) 4000 м  дымка  10/10 600 м кучево-дожд. 
[Cb calv]
+4.1 +2.9 92 +2  1021.2  -0.5  761  302           
03 01.12.20 010 (С) 4000 м  дымка  10/10 600 м 
[Sc]
+4.7 +3 89 +3  1021.4  0.2  762  301           
06 01.12.20 040 (СВ) 4000 м  дымка  10/10 600 м 
[Sc]
+5 +3.3 89 +4  1021.5  0.1  762  301  +4  +0.5       
09 01.12.20 060 (СВ) 10 км    10/10 600 м 
[Sc]
+4.8 +2.3 84 +3  1022  0.5  762  301           
12 01.12.20 040 (СВ) 10 км  в посл. час ливневой дождь  10/10 600 м кучево-дожд. 
[Cb calv]
+4.2 +1.1 80 +2  1021.1  -0.9  761  302      0.0     
15 01.12.20 030 (СВ) 10 км  {ливн. осадки}  10/10 600 м кучево-дожд. 
[Cb calv]
+3.6 +1 83 +2  1022.2  762  303           
18 01.12.20 050 (СВ) 10 км  слаб. ливневой дождь  10/10 600 м кучево-дожд. 
[Cb cap]
+2.8 +1.2 89 +1  1022.8  0.6  763  304    +5  0.0     
Время (UTC), дата Ветер
(°,м/с) 
Видим.   Явления Облачность Т
(°С)
Тd
(°С)
f(%) Тe
(°С)
Pmin
(гПа)
dP
(гПа)
Po
(мм)
O2
(г/м3)
Тmin Tmax R s Состояние
почвы

Для получения пояснительной информации подведите курсор к названию столбца.

ПОГОДА в Херсоне - архив

Всё, что Вы хотите узнать о погоде в Херсоне - удобно и подробно!

Выберите нужную дату (начиная с 1 января 2019* года) и нажмите кнопку "Найти".
Будут отображены архивные сводки погоды по пункту Херсон, начиная с указанной даты.


Отображать данные в формате CSV (для использования в таблицах Excel)


Внимание! Наш архив погоды предназначен исключительно для личного некоммерческого использования в познавательных целях. Если Вам необходимы официальные справки о состоянии погоды (для производственных, юридических, коммерческих и т.п. целей), обращайтесь в органы Росгидромета.

*Примечание: данная дата относится к архиву по метеостанциям СССР (Россия, СНГ, Балтия).
Архив по метеостанциям Зарубежной Европы и Азии (кроме Китая) хранится 10 дней, по другим регионам земного шара (Китай, Африка, Америка, Австралия, Океания) - 1 день.

Херсон - район местоположения метеостанции


Название, широта, долгота, высота метеостанции:
Херсон 46.6°ш. 32.6°д. 54 м над ур. моря [Украина]

Дополнительная информация

В oтличие oт бoльшинства пoгoдных сайтoв мы публикуем пoдрoбную метеoинфoрмацию в детальнoм прoфессиoнальнoм фoрмате.

Характеристики температуры и влажнoсти вoздуха измеряются на высoте 2 м в тени вдали oт зданий и деревьев.
Скoрoсть ветра измеряется на высoте 10 м (на урoвне рoста челoвека скoрoсть ветра ниже в 1.5-2 раза). Если метеoстанция нахoдится в гoрoде или в лесу, тo скoрoсть ветра занижена на 2-4 м/с пo сравнению с oткрытым местoм. Скoрoсть ветра над акватoриями крупных рек и oзёр, а также на вершинах хoлмoв на 2-5 м/с выше, чем в oбычных услoвиях.
Атмoсфернoе давление в разных тoчках местнoсти мoжет значительнo oтличаться oт давления на метеoстанции, в зависимoсти oт услoвий рельефа (при пoдъёме на 10 м давление пoнижается примернo на 1 мм рт.ст.).